Weather in Vershino-Shakhtaminskiy

Russia / Zabaykalsky Krai     51°17′33″N   117°54′08″E
temp.,
°C
wind,
m/s
gust,
m/s
humid.,
%
clouds,
%
prec.,
mm/h
press.,
hPa
HPBL,
m
10 may, mon
mon1000:00+2nw114936 0.0 101010
03:00+1s005297 0.0 101010
06:00+3n115596 0.1 101017
09:00+7ese124327 0.1 1010777
12:00+13sse1334100 0.0 10072212
15:00+13ssw1330100 0.0 10052222
18:00+10sw1342100 0.0 10061413
21:00+8ne1155100 0.0 100612
11 may, tue
tue1100:00+3sw0094100 4.1 1008332
03:00+3e1296100 6.8 1007510
06:00+4n2594100 0.3 1006565
09:00+4nne3688100 0.4 1005477
12:00+6nne6972100 0.1 10031091
15:00+8ne71057100 0.1 10011359
18:00+8ne61256100 0.0 10001298
21:00+6nne41365100 0.0 10011065
12 may, wed
wed1200:00+4nnw3870100 0.0 1001280
03:00+2nw3581100 0.0 1002109
06:00+3nw41374100 0.0 1002672
09:00+8nnw7154341 0.0 10011588
12:00+12nw813335 0.0 10002212
15:00+14nw8122412 0.0 10003127
18:00+14nw6112232 0.0 10003649
21:00+8w22451 0.0 100225
13 may, thu
thu1300:00+6w36544 0.0 1005125
03:00+4wsw22690 0.0 100645
06:00+2wsw238423 0.0 100758
09:00+8wnw4831100 0.0 10061021
12:00+11wnw51122100 0.0 10041588
15:00+12wsw5930100 0.0 10042039
18:00+9sw5547100 0.0 10051132
21:00+5ssw1168100 0.0 100511
14 may, fri
fri1400:00+5w1160100 0.0 100510
03:00+3e1383100 1.2 1006472
06:00+2nnw2399100 2.1 1004152
09:00+2nnw2399100 6.3 1002145
12:00+2wnw3899100 3.8 1001427
15:00+2nnw36100100 8.6 1001249
18:00+2wnw29100100 3.8 1002535
21:00+2wnw3993100 4.0 1002284